Regional Weather Roundup
Issued by NWS

Home | Current Version | Previous Version | Text Only | Print | Product List | Glossary On
Versions: 1 2 3 4 5 6 7 8 9 10 11 12 13 14 15 16 17 18 19 20 21 22 23 24 25 26 27 28 29 30 31 32 33 34 35 36 37 38 39 40 41 42 43 44 45 46 47 48 49 50
000
ASUS43 KFSD 261010
RWRSD

WEATHER ROUNDUP FOR SOUTH DAKOTA
NATIONAL WEATHER SERVICE SIOUX FALLS SD
400 AM CST FRI DEC 26 2014

NOTE: "FAIR" INDICATES FEW OR NO CLOUDS BELOW 12,000 FEET WITH NO
SIGNIFICANT WEATHER AND/OR OBSTRUCTIONS TO VISIBILITY.


SDZ001>005-009-010-012>017-261100-
NORTHWEST AND NORTH CENTRAL SOUTH DAKOTA

CITY           SKY/WX    TMP DP  RH WIND       PRES   REMARKS
BUFFALO          N/A     20  14  77 N14       29.97R WCI   7
FAITH            N/A     22  15  75 N12       30.04R WCI  10
MOBRIDGE       CLOUDY    25  21  85 N12       30.03S WCI  14
$$

SDZ012>016-024>037-041>051-057-063-072>074-261100-
SOUTHWEST AND SOUTH CENTRAL SOUTH DAKOTA

CITY           SKY/WX    TMP DP  RH WIND       PRES   REMARKS
RAPID CTY ARPT CLOUDY    20  17  88 N12       30.02R WCI   8
PIERRE         CLOUDY    25  21  85 N15       30.03R WCI  13
CUSTER         CLOUDY    13   9  84 CALM      29.87R
ELLSWORTH AFB  CLOUDY    19  18  93 N12       30.02  WCI   7
PHILIP         CLOUDY    24  17  74 NW10      30.07R WCI  14
PINE RIDGE     CLOUDY    20  16  84 N9        30.01R WCI   9
SPEARFISH      MOCLDY    18  16  93 NW8       30.01R WCI   7
WINNER         FLURRIES  26  22  84 N17       30.02R WCI  13
$$

SDZ004>011-016>023-039-040-261100-
NORTHEAST SOUTH DAKOTA

CITY           SKY/WX    TMP DP  RH WIND       PRES   REMARKS
ABERDEEN       CLOUDY    26  22  84 N16       30.04S WCI  14
WATERTOWN      CLOUDY    24  21  88 N13       29.95R WCI  12
SISSETON         N/A     25  23  92 N20       30.00R WCI  11
$$

SDZ017-020-022-023-036>040-048>070-261100-
SOUTHEAST SOUTH DAKOTA

CITY           SKY/WX    TMP DP  RH WIND       PRES   REMARKS
SIOUX FALLS    CLOUDY    28  25  88 N14       29.94R WCI  17
HURON          LGT SNOW  25  23  92 N15       30.01R FOG     WCI  13
CHAMBERLAIN    CLOUDY    25  22  89 N12       30.03R WCI  15
MITCHELL       CLOUDY    27  24  89 NW12      30.01R WCI  17
YANKTON        CLOUDY    28  25  86 NW16      29.97R WCI  17
$$

ABBREVIATIONS USED IN REMARKS
   TC - TEMPERATURE IN CELSIUS
  WCI - WIND CHILL INDEX
   HX - HEAT INDEX
  VSB - VISIBILITY



USA.gov is the U.S. government's official web portal to all federal, state and local government web resources and services.